DELTA 1 DEB, 2707

Orbit data source: Space-Track

DELTA 1 DEB, 2707 is space debris in SSO originally from a launch on Thu, 26 Jan 1967 UTC launched from the Air Force Western Test Range (AFWTR). Debris objects in space refer to the collection of defunct objects orbiting the Earth. Examples of debris include non-operational satellites, rocket bodies, and fragments generated from explosions, collisions, or faulty payload assembly.

Loading next visibility...
Identifier
2707, 1967-006D
Orbit
SSO
Country
Flag of USUS
Related business
Manufacturer
Unknown
Mission
Spacecraft
Bus & Motor
Unknown
Mass
Unknown
Launch date (UTC)
1967-01-26 (59 years ago)
Launch vehicle
Unknown
Launch site
Air Force Western Test Range (AFWTR)
Object type
Payload
Rocket body
Debris
Shape & HBR
Unknown shape, 0.1 m
Radar Cross Section
Small (<0.1 m²)

Expand to show TLE details & history
Last TLE update: 6 days ago

TLE from 6 days ago
0 DELTA 1 DEB
1 02707U 67006D   25304.84653219  .00000000  00000-0  20597-3 0  9993
2 02707 101.8595 258.9639 0149198 106.2472 282.3233 12.79394179743158
Epoch: 2025-10-31T20:19Z
TLE epoch observation values (Epoch: 2025-10-31T20:19:00.381Z)
Latitude
26.31033°
Longitude
-92.10286°
Altitude
1,323.893 km
Speed
7.208 km/s
True Right ascension
16h 52m 08s
True Declination
26° 11' 02"
Sunlit
Object was in daylight at epoch
Visualization orbit readout
Latitude
Unknown
Longitude
Unknown
Altitude
Unknown
Speed
Unknown
Apparent Right ascension
Unknown
Apparent Declination
Unknown
Sunlit
N/A
Visualization observer readout
Local Sidereal Time
03:45:08
Azimuth
Unknown
Elevation
Unknown
Doppler factor
Unknown
Orbital elements
Apogee altitude
1,456.595 km
Perigee altitude
1,226.247 km
Semi-major axis
7,719.558 km
Eccentricity
0.01492
Inclination
101.8595°
RAAN
258.9639°
Arg. of periapsis
106.2472°
True anomaly
280.64658°
Mean anomaly
282.3233°
Eccentric anomaly
281.48558°
Mean motion
3.20003 °/min
Orbital period
112.5 mins
BSTAR
0.00020597
Loading maneuver chart data...
Computing Atmospheric mass density...
Loading historical data...
Loading historical data...
Loading historical data...
Loading historical data...
Loading historical data...
Loading historical data...
Loading historical data...
Other satellites on launch #6 in the year 1967 (1967-01-26 UTC)

Documentation

Showing up to 5 results
|